Tracking 20621 objects as of 31-Mar-2020
HD Live streaming from Space Station
objects crossing your sky now

COSMOS 1473

Track COSMOS 1473 now!
10-day predictions
COSMOS 1473 is classified as:


NORAD ID: 14171
Int'l Code: 1983-069A
Perigee: 1,401.6 km
Apogee: 1,469.1 km
Inclination: 74.0 °
Period: 114.4 minutes
Semi major axis: 7806 km
RCS: 0.7151 m2 (medium)
Launch date: July 6, 1983
Source: Commonwealth of Independent States (former USSR) (CIS)
Launch site: PLESETSK MISSILE AND SPACE COMPLEX (PKMTR)
aabbcc
Your satellite tracking list
Your tracking list is empty




NASA's NSSDC Master Catalog

Two Line Element Set (TLE):
1 14171U 83069A   20090.75591017 -.00000007  00000-0  51687-4 0  9995
2 14171  74.0265 175.3931 0043247 119.3213  54.5628 12.58721499688212
Source of the keplerian elements: AFSPC